Weather History for Burlington, IA

Change the Weather History Date:

Friday, December 26, 2014

  Actual Average Record
Temperature  
Mean Temperature 47 °F 26 °F  
Max Temperature 54 °F 35 °F 59 °F (1907)
Min Temperature 39 °F 19 °F -16 °F (1914)
Degree Days  
Heating Degree Days 18 39  
Month to date heating degree days 792 919  
Since 1 July heating degree days 2169 1992  
Cooling Degree Days 0 0  
Month to date cooling degree days 0 0  
Year to date cooling degree days 940 1207  
Moisture  
Dew Point 39 °F    
Average Humidity 72    
Maximum Humidity 85    
Minimum Humidity 59    
Precipitation  
Precipitation 0.00 in 0.05 in 0.62 in (1988)
Month to date precipitation 0.65 1.82  
Year to date precipitation 40.38 38.21  
Sea Level Pressure  
Sea Level Pressure 29.96 in    
Wind  
Wind Speed 11 mph (South)    
Max Wind Speed 18 mph    
Max Gust Speed 23 mph    
Visibility 10 miles    
Events      
T = Trace of Precipitation, MM = Missing Value Source: NWS Daily Summary

Daily Weather History Graph

Daily Weather History Graph

Search for Another Location

Airport:

Trip Planner

Search our weather history database for the weather conditions in past years. The results will help you decide how hot, cold, wet, or windy it might be!

Date:

Astronomy

Dec. 26, 2014 Rise Set
Actual Time 7:27 AM CST 4:42 PM CST
Civil Twilight 6:56 AM CST 5:14 PM CST
Nautical Twilight 6:21 AM CST 5:48 PM CST
Astronomical Twilight 5:48 AM CST 6:21 PM CST
Moon 10:37 AM CST (12/26) 10:27 PM CST (12/26)
Length of Visible Light 10h 17m
Length of Day
9h 15m
Waxing Crescent, 28% of the Moon is Illuminated
Dec 26
Waxing Crescent
Dec 28
First Quarter
Jan 4
Full
Jan 13
Last Quarter
Jan 20
New

Hourly Weather History & Observations

Time (CST) Temp. Windchill Dew Point Humidity Pressure Visibility Wind Dir Wind Speed Gust Speed Precip Events Conditions
12:53 AM 41.0 °F 33.1 °F 34.0 °F 76% 29.93 in 10.0 mi South 15.0 mph - N/A   Clear
1:53 AM 39.9 °F 31.4 °F 34.0 °F 79% 29.93 in 10.0 mi South 16.1 mph - N/A   Clear
2:53 AM 39.9 °F 31.4 °F 34.0 °F 79% 29.94 in 10.0 mi South 16.1 mph 23.0 mph N/A   Clear
3:53 AM 39.9 °F 32.1 °F 34.0 °F 79% 29.94 in 10.0 mi South 13.8 mph - N/A   Clear
4:53 AM 39.9 °F 32.1 °F 34.0 °F 79% 29.94 in 10.0 mi South 13.8 mph - N/A   Clear
5:53 AM 39.9 °F 32.5 °F 34.0 °F 79% 29.95 in 10.0 mi South 12.7 mph - N/A   Clear
6:53 AM 39.9 °F 32.9 °F 35.1 °F 83% 29.96 in 10.0 mi South 11.5 mph - N/A   Clear
7:53 AM 41.0 °F 34.3 °F 35.1 °F 79% 29.97 in 10.0 mi South 11.5 mph - N/A   Clear
8:53 AM 42.1 °F 35.2 °F 36.0 °F 79% 29.99 in 10.0 mi SSW 12.7 mph - N/A   Clear
9:53 AM 46.9 °F - 37.9 °F 71% 30.00 in 10.0 mi SSW 13.8 mph - N/A   Clear
10:53 AM 48.9 °F - 37.9 °F 66% 29.99 in 10.0 mi SW 16.1 mph - N/A   Clear
11:53 AM 51.1 °F - 39.9 °F 66% 29.98 in 10.0 mi SW 9.2 mph - N/A   Clear
12:53 PM 53.1 °F - 39.9 °F 61% 29.96 in 10.0 mi SSW 13.8 mph - N/A   Clear
1:53 PM 54.0 °F - 39.0 °F 57% 29.95 in 10.0 mi SSW 11.5 mph - N/A   Clear
2:53 PM 54.0 °F - 41.0 °F 62% 29.96 in 10.0 mi SSW 11.5 mph - N/A   Clear
3:53 PM 52.0 °F - 41.0 °F 66% 29.96 in 10.0 mi South 9.2 mph - N/A   Clear
4:53 PM 50.0 °F - 41.0 °F 71% 29.97 in 10.0 mi South 6.9 mph - N/A   Overcast
5:53 PM 50.0 °F - 42.1 °F 74% 29.97 in 10.0 mi SE 4.6 mph - N/A   Overcast
6:53 PM 48.9 °F - 42.1 °F 77% 29.97 in 10.0 mi SE 3.5 mph - N/A   Overcast
7:53 PM 48.9 °F - 42.1 °F 77% 29.95 in 10.0 mi ESE 8.1 mph - N/A   Overcast
8:53 PM 48.9 °F - 42.1 °F 77% 29.96 in 10.0 mi ESE 5.8 mph - N/A   Overcast
9:53 PM 48.9 °F - 43.0 °F 80% 29.96 in 10.0 mi South 5.8 mph - N/A   Overcast
10:35 PM 50.0 °F - 43.0 °F 77% 29.95 in 10.0 mi South 6.9 mph - N/A   Overcast
10:53 PM 50.0 °F - 44.1 °F 80% 29.96 in 10.0 mi SSW 9.2 mph - N/A   Overcast
11:53 PM 50.0 °F - 45.0 °F 83% 29.94 in 10.0 mi SSW 10.4 mph - N/A   Overcast